Погода Агинское

Хотите узнать прогноз погоды Агинское? Тогда Вам сюда: Погода Агинское

Поиск расширенной информации на нашем сайте:

Полезная информация:

Новости сайта



02.01.2020
Опубликован Долгосрочный прогноз погоды по городам России и ближнего зарубежья на январь 2020 года.
Карты: Прогноз на январь и февраль 2020 года, Сравнение прогнозируемой аномалии приземной температуры воздуха на январь 2020 года по разным моделям.




Погода Агинское - сегодня

Время (UTC), дата Ветер
(°,м/с) 
Видим.   Явления Облачность Т
(°С)
Тd
(°С)
f(%) Тe
(°С)
Pmin
(гПа)
dP
(гПа)
Po
(мм)
O2
(г/м3)
Тmin Tmax R s Состояние
почвы
00 30.11.20 тихо ()   20000 м    1/1 1000 м 
[Sc]
-21.7 -24.4 79 -22  1041.1  0.5  712  313  -21.9    0.0  равномерный
сухой снег
100% 
03 30.11.20 тихо ()   20000 м    3/0 средняя 
[Ac lent]
-12.9 -17.5 68 -13  1038.1  0.2  713  303  -22.4         
06 30.11.20 290 (З) 20000 м    5/5 1000 м 
[Cu Sc]
-8.3 -15.8 55 -12  1035.1  -1.3  712  297           
09 30.11.20 270 (З) 20000 м    10/10 1000 м 
[Sc]
-10 -14.9 67 -12  1035.9  0.3  712  299           
12 30.11.20 280 (З) 20000 м    10/10 600 м кучево-дожд. 
[Cb cap]
-9.4 -15.6 61 -14  1035.9  0.2  712  298    -7.9       
15 30.11.20 260 (З) 20000 м    3/0 средняя 
[Ac lent]
-14.4 -17.9 75 -17  1037.4  -0.2  712  304           
18 30.11.20 250 (З) 20000 м    9/9 1000 м 
[Sc]
-16.6 -19.3 80 -19  1037.6  -0.6  711  307           
21 30.11.20 270 (З) 20000 м    3/0 средняя 
[Ac lent]
-15.9 -19 77 -18  1036.1  -1.1  710  305           
00 01.12.20 290 (З) 20000 м    8/0 средняя, верхняя 
[Ac lent|Ci fib]
-15.7 -18.3 80 -16  1035.8  -0.2  710  305  -17.8      равномерный
сухой снег
100% 
03 01.12.20 300 (СЗ) 5-10{10}  20000 м    8/1 1000 м верхняя 
[Cu hum|Ci fib]
-9.2 -15.6 60 -14  1032.9  -0.7  710  297           
06 01.12.20 310 (СЗ) 5{10}  20000 м    3/1 1000 м верхняя 
[Cu hum|Ci fib]
-7.8 -16.1 51 -12  1031.4  -0.9  709  295           
09 01.12.20 320 (СЗ) 20000 м    10/0 верхняя 
[Ci fib]
-11.9 -16.8 67 -12  1033.2  0.3  709  300           
12 01.12.20 тихо ()   20000 м    ясно 
-14.5 -18 75 -15  1034.7  0.5  710  303    -7.6       
15 01.12.20 290 (З) 20000 м    ясно 
-17.1 -20 78 -20  1035.6  710  307           
18 01.12.20 310 (СЗ) 20000 м    ясно 
-17.3 -19.6 82 -21  1035.8  0.1  710  307           
21 01.12.20 300 (СЗ) 20000 м    3/0 верхняя 
[Ci fib]
-13.7 -16.9 77 -17  1034.3  -0.2  710  302           
00 02.12.20 230 (ЮЗ) 20000 м    3/0 верхняя 
[Ci fib]
-15.9 -18.3 82 -16  1035.7  0.6  710  305  -19      равномерный
сухой снег
100% 
03 02.12.20 300 (СЗ) 5-10{10}  20000 м    3/1 1000 м верхняя 
[Cu hum|Ci fib]
-8.4 -14.6 61 -13  1033.5  0.3  710  297           
06 02.12.20 290 (З) 5{11}  20000 м    10/0 верхняя 
[Cs]
-6.7 -15.5 50 -11  1032.2  -0.6  710  294           
09 02.12.20 270 (З) 5{10}  20000 м    3/0 верхняя 
[Ci fib]
-9.6 -16 60 -14  1034.2  0.9  711  298           
12 02.12.20 230 (ЮЗ) 20000 м    3/0 верхняя 
[Ci fib]
-12.7 -16.9 71 -18  1035.7  0.4  711  302    -6.5       
15 02.12.20 250 (З) 20000 м    3/0 верхняя 
[Ci fib]
-11.4 -16.4 66 -16  1035.6  0.4  711  300           
18 02.12.20 250 (З) 20000 м    6/0 верхняя 
[Ci fib]
-11.5 -16.5 66 -17  1035.2  -0.4  711  300           
21 02.12.20 270 (З) 6-10{11}  20000 м    10/0 верхняя 
[Cs]
-10.9 -16.1 65 -16  1033.4  -1.4  710  299           
00 03.12.20 270 (З) 7-11{13}  20000 м    10/0 средняя 
[As op]
-9.7 -15.7 62 -16  1031.9  -1  709  297  -13.5      равномерный
сухой снег
100% 
Время (UTC), дата Ветер
(°,м/с) 
Видим.   Явления Облачность Т
(°С)
Тd
(°С)
f(%) Тe
(°С)
Pmin
(гПа)
dP
(гПа)
Po
(мм)
O2
(г/м3)
Тmin Tmax R s Состояние
почвы

Для получения пояснительной информации подведите курсор к названию столбца.

ПОГОДА Агинское - архив

Всё, что Вы хотите узнать о погоде Агинское - удобно и подробно!

Выберите нужную дату (начиная с 1 января 2019* года) и нажмите кнопку "Найти".
Будут отображены архивные сводки погоды по пункту Агинское, начиная с указанной даты.


Отображать данные в формате CSV (для использования в таблицах Excel)


Внимание! Наш архив погоды предназначен исключительно для личного некоммерческого использования в познавательных целях. Если Вам необходимы официальные справки о состоянии погоды (для производственных, юридических, коммерческих и т.п. целей), обращайтесь в органы Росгидромета.

*Примечание: данная дата относится к архиву по метеостанциям СССР (Россия, СНГ, Балтия).
Архив по метеостанциям Зарубежной Европы и Азии (кроме Китая) хранится 10 дней, по другим регионам земного шара (Китай, Африка, Америка, Австралия, Океания) - 1 день.

Агинское - район местоположения метеостанции


Название, широта, долгота, высота метеостанции:
Агинское 51.1°ш. 114.5°д. 681 м над ур. моря [Российская Федерация]

Дополнительная информация

В oтличие oт бoльшинства пoгoдных сайтoв мы публикуем пoдрoбную метеoинфoрмацию в детальнoм прoфессиoнальнoм фoрмате.

Характеристики температуры и влажнoсти вoздуха измеряются на высoте 2 м в тени вдали oт зданий и деревьев.
Скoрoсть ветра измеряется на высoте 10 м (на урoвне рoста челoвека скoрoсть ветра ниже в 1.5-2 раза). Если метеoстанция нахoдится в гoрoде или в лесу, тo скoрoсть ветра занижена на 2-4 м/с пo сравнению с oткрытым местoм. Скoрoсть ветра над акватoриями крупных рек и oзёр, а также на вершинах хoлмoв на 2-5 м/с выше, чем в oбычных услoвиях.
Атмoсфернoе давление в разных тoчках местнoсти мoжет значительнo oтличаться oт давления на метеoстанции, в зависимoсти oт услoвий рельефа (при пoдъёме на 10 м давление пoнижается примернo на 1 мм рт.ст.).